Starlink 3268

operational
NORAD ID: 50190 Int'l Des: 2021-125 Owner: SPXS Country: US Constellation: starlink
LEOCIRCULAR

Über Starlink 3268

Beschreibung wird geladen...

Live-Position

3D-Globus wird geladen...

Nächste Überflüge

Höhenverlauf

Altitude vs Time

uPlot chart will show altitude changes over time

Zweizeiliger Elementsatz

1 50190U 21125AL 25259.16106154 -.00000619 00000-0 -20825-4 0 9992
2 50190 53.2176 302.6136 0001501 85.8013 274.3150 15.08834080210387
Epoch: 16. Sept. 2025 • Age: 10 hours

Aktueller Status

Höhe 542.7 km
Geschwindigkeit 7.60 km/s
Subsatellitenpunkt 41.08°N, 140.74°E
Startdatum 18. Dez. 2021
Alter 3.7 years
Typ internet

Technische Details

Klassifizierung Payload
Masse 290.00 kg
Trockenmasse 270.00 kg
Gesamtmasse 290.00 kg
Länge 0.20 m
Durchmesser 2.80 m
Spannweite 9.00 m
Form Box + pan
Hersteller SPXS
Bus-Typ Starlink
Phasenstatus In Orbit
Besitzer/Staat SPXS/US

Große Konstellationen

Loading constellations...